Location: Banios
(43.0451°N, 0.2335°E)
Time: 12:30:03
(UTC+00:00)

A-11 Canister half - Pass Details

Date: 16 May 2021
Orbit: 1513 x 1686 km, 47.2° (Epoch: 14 June)

Event Time Altitude Azimuth Distance (km) Brightness Sun altitude
Rises 16:21:20 0° 271° (W) 4,666 12.7 30.0°
Reaches altitude 10° 16:24:25 10° 274° (W) 3,677 12.7 29.5°
Maximum altitude 16:33:37 69° 357° (N) 1,610 9.6 27.8°
Drops below altitude 10° 16:42:56 10° 81° (E) 3,710 10.6 26.1°
Sets 16:46:03 0° 84° (E) 4,711 11.0 25.5°
